カタログに戻る

STARLINK-3888

運用中通信VLEO
NORAD 52454·PAYLOAD·🇺🇸 United States

打ち上げ May 6, 2022 から Cape Canaveral Space Force Station

Loading…

次のパス (今後24時間)

TLE

最新Source: CelesTrak SupGP

元期: Sep 15, 2026, 01:25 UTC

1 52454C 22049D   26258.05951389  .00030817  00000+0  88114-3 0  2581
2 52454  53.1589 294.9859 0001165  69.8041  75.1040 15.35403055    19

AllMySatでSTARLINK-3888をリアルタイム追跡

Download on the App Store